Weather History for Victoria Int. Airport, B. C., British Columbia

Change the Weather History Date:

Friday, August 23, 2013

  Actual Average Record
Temperature  
Mean Temperature 64 °F -  
Max Temperature 76 °F 67 °F - ()
Min Temperature 51 °F 48 °F - ()
Degree Days  
Heating Degree Days 2    
Growing Degree Days 14 (Base 50)    
Moisture  
Dew Point 53 °F    
Average Humidity 76    
Maximum Humidity 94    
Minimum Humidity 47    
Precipitation  
Precipitation 0.01 in 0.04 in - ()
Sea Level Pressure  
Sea Level Pressure 29.84 in    
Wind  
Wind Speed 5 mph ()    
Max Wind Speed 14 mph    
Max Gust Speed 21 mph    
T = Trace of Precipitation, MM = Missing Value Source: Averaged Metar Reports

Daily Weather History Graph

Daily Weather History Graph

Search for Another Location

Airport:

Trip Planner

Search our weather history database for the weather conditions in past years. The results will help you decide how hot, cold, wet, or windy it might be!

Date:

Astronomy

Aug. 23, 2013 Rise Set
Actual Time 6:18 AM PDT 8:12 PM PDT
Civil Twilight 5:45 AM PDT 8:46 PM PDT
Nautical Twilight 5:03 AM PDT 9:27 PM PDT
Astronomical Twilight 4:17 AM PDT 10:13 PM PDT
Moon 9:12 PM PDT (8/23) 9:40 AM PDT (8/23)
Length of Visible Light 15h 01m
Length of Day
13h 54m
Waning Gibbous, 91% of the Moon is Illuminated
Aug 23
Waning Gibbous
Aug 28
Last Quarter
Sep 5
New
Sep 12
First Quarter
Sep 19
Full

Hourly Weather History & Observations

Time (PDT) Temp. Dew Point Humidity Pressure Visibility Wind Dir Wind Speed Gust Speed Precip Events Conditions
12:00 AM 55.4 °F 50.0 °F 82% 29.79 in 30.0 mi SE 3.5 mph - N/A   Scattered Clouds
1:00 AM 53.6 °F 50.0 °F 88% 29.81 in 30.0 mi ESE 6.9 mph - N/A   Scattered Clouds
2:00 AM 53.6 °F 50.0 °F 88% 29.81 in 30.0 mi North 2.3 mph - N/A   Mostly Cloudy
3:00 AM 53.6 °F 50.0 °F 88% 29.80 in 30.0 mi SE 3.5 mph - N/A   Mostly Cloudy
4:00 AM 53.6 °F 50.0 °F 88% 29.81 in 30.0 mi East 2.3 mph - N/A   Mostly Cloudy
5:00 AM 53 °F 50 °F 84% 29.81 in 28 mi ENE 1.2 mph - -   Clear
5:00 AM 53.6 °F 50.0 °F 88% 29.81 in 30.0 mi NE 2.3 mph - N/A   Mostly Cloudy
6:00 AM 51.8 °F 50.0 °F 94% 29.81 in 30.0 mi Variable 2.3 mph - N/A   Overcast
7:00 AM 53.6 °F 50.0 °F 88% 29.81 in 30.0 mi Calm Calm - N/A   Mostly Cloudy
8:00 AM 59.0 °F 53.6 °F 82% 29.82 in 30.0 mi ENE 2.3 mph - N/A   Mostly Cloudy
9:00 AM 59.0 °F 53.6 °F 82% 29.83 in 30.0 mi NE 2.3 mph - N/A   Mostly Cloudy
10:00 AM 66.2 °F 55.4 °F 68% 29.83 in 30.0 mi East 6.9 mph - N/A   Mostly Cloudy
11:00 AM 64 °F 54 °F 63% 29.84 in 28 mi East 9.2 mph - -   Scattered Clouds
11:00 AM 64.4 °F 53.6 °F 68% 29.84 in 30.0 mi East 10.4 mph - N/A   Scattered Clouds
12:00 PM 64.4 °F 53.6 °F 68% 29.84 in 30.0 mi SE 9.2 mph - N/A   Mostly Cloudy
1:00 PM 69.8 °F 55.4 °F 60% 29.84 in 30.0 mi Variable 2.3 mph - N/A   Mostly Cloudy
2:00 PM 75.2 °F 53.6 °F 47% 29.85 in 30.0 mi WSW 12.7 mph 18.4 mph N/A   Mostly Cloudy
3:00 PM 71.6 °F 53.6 °F 53% 29.86 in 30.0 mi SW 10.4 mph 20.7 mph N/A   Mostly Cloudy
4:00 PM 73.4 °F 53.6 °F 50% 29.86 in 30.0 mi West 12.7 mph - N/A   Mostly Cloudy
5:00 PM 64.4 °F 53.6 °F 68% 29.85 in 30.0 mi SE 11.5 mph - N/A   Mostly Cloudy
6:00 PM 59.0 °F 53.6 °F 82% 29.86 in 30.0 mi ESE 13.8 mph - N/A   Mostly Cloudy
6:44 PM 62.6 °F 53.6 °F 72% 29.85 in 30.0 mi ESE 9.2 mph - N/A Rain Light Rain
7:00 PM 62.6 °F 53.6 °F 72% 29.85 in 30.0 mi SE 9.2 mph - N/A   Mostly Cloudy
8:00 PM 64.4 °F 55.4 °F 73% 29.86 in 30.0 mi NNW 4.6 mph - N/A   Mostly Cloudy
8:18 PM 64.4 °F 55.4 °F 73% 29.87 in 30.0 mi West 4.6 mph - N/A Rain Light Rain
9:00 PM 62.6 °F 59.0 °F 88% 29.88 in 30.0 mi Calm Calm - N/A   Mostly Cloudy
10:00 PM 64.4 °F 57.2 °F 77% 29.88 in 30.0 mi SSW 5.8 mph - N/A   Mostly Cloudy
11:00 PM 61 °F 58 °F 88% 29.88 in 28 mi SE 4.6 mph - -   Partly Cloudy
11:00 PM 60.8 °F 59.0 °F 94% 29.88 in 30.0 mi SSE 3.5 mph - N/A   Mostly Cloudy